Weather History for CWZL - January, 2013

Change the Weather History Date:

Monday, January 21, 2013

  Actual Average Record
Temperature  
Mean Temperature 44 °F -  
Max Temperature 45 °F - - ()
Min Temperature 42 °F - - ()
Degree Days  
Heating Degree Days 22    
Moisture  
Dew Point 40 °F    
Average Humidity 86    
Maximum Humidity 93    
Minimum Humidity 75    
Precipitation  
Precipitation 0.00 in - - ()
Sea Level Pressure  
Sea Level Pressure 30.04 in    
Wind  
Wind Speed 16 mph ()    
Max Wind Speed 31 mph    
Max Gust Speed -    
T = Trace of Precipitation, MM = Missing Value Source: Averaged Metar Reports

Daily Weather History Graph

Daily Weather History Graph

Search for Another Location

Airport or City:

Trip Planner

Search our weather history database for the weather conditions in past years. The results will help you decide how hot, cold, wet, or windy it might be!

Date:

Astronomy

Jan. 21, 2013 Rise Set
Actual Time 8:45 AM PST 5:11 PM PST
Civil Twilight 8:05 AM PST 5:50 PM PST
Nautical Twilight 7:23 AM PST 6:33 PM PST
Astronomical Twilight 6:42 AM PST 7:14 PM PST
Moon 12:52 PM PST (1/21) 4:22 AM PST (1/21)
Length of Visible Light 9h 44m
Length of Day
8h 25m
Waxing Gibbous, 76% of the Moon is Illuminated
Jan 21
Waxing Gibbous
Jan 26
Full
Feb 3
Last Quarter
Feb 9
New
Feb 17
First Quarter

Hourly Weather History & Observations

Time (PST) Temp. Windchill Dew Point Humidity Pressure Visibility Wind Dir Wind Speed Gust Speed Precip Events Conditions
12:00 AM 44.8 °F 38.7 °F 41.9 °F 90% 30.25 in - South 12.7 mph - N/A   Unknown
1:00 AM 44.8 °F 38.7 °F 42.1 °F 90% 30.22 in - SSE 12.7 mph - N/A   Unknown
2:00 AM 45.1 °F 37.6 °F 42.3 °F 90% 30.20 in - SSE 18.4 mph - N/A   Unknown
3:00 AM 45.3 °F 37.6 °F 41.5 °F 87% 30.18 in - SSE 19.6 mph - N/A   Unknown
4:00 AM 45 °F - 40 °F 77% 30.17 in - South 17.3 mph - -  
4:00 AM 45.0 °F 37.6 °F 40.1 °F 83% 30.17 in - South 17.3 mph - N/A   Unknown
5:00 AM 43.9 °F 36.8 °F 41.0 °F 90% 30.15 in - South 15.0 mph - N/A   Unknown
6:00 AM 42.8 °F 35.4 °F 40.5 °F 91% 30.14 in - South 15.0 mph - N/A   Unknown
7:00 AM 42.8 °F 35.4 °F 40.8 °F 93% 30.13 in - South 15.0 mph - N/A   Unknown
8:00 AM 43.0 °F 35.4 °F 41.2 °F 93% 30.10 in - SSE 16.1 mph - N/A   Unknown
9:00 AM 42.8 °F 35.1 °F 39.4 °F 88% 30.09 in - SSE 16.1 mph - N/A   Unknown
10:00 AM 43 °F - 40 °F 85% 30.10 in - SSE 12.7 mph - -  
10:00 AM 42.8 °F 36.2 °F 39.9 °F 90% 30.10 in - SSE 12.7 mph - N/A   Unknown
11:00 AM 43.2 °F 35.0 °F 40.1 °F 89% 30.08 in - SSE 18.4 mph - N/A   Unknown
12:00 PM 43.5 °F 36.1 °F 39.4 °F 85% 30.07 in - South 16.1 mph - N/A   Unknown
1:00 PM 42.6 °F 35.9 °F 39.4 °F 88% 30.05 in - South 12.7 mph - N/A   Unknown
2:00 PM 43.3 °F 37.2 °F 39.2 °F 85% 30.03 in - South 11.5 mph - N/A   Unknown
3:00 PM 44.2 °F 36.7 °F 39.0 °F 82% 30.00 in - SSE 17.3 mph - N/A   Unknown
4:00 PM 44 °F - 39 °F 75% 29.99 in - South 18.4 mph - -  
4:00 PM 44.2 °F 36.4 °F 38.7 °F 81% 29.99 in - South 18.4 mph - N/A   Unknown
5:00 PM 44.1 °F 34.8 °F 39.4 °F 84% 29.95 in - SSE 25.3 mph - N/A   Unknown
6:00 PM 43.7 °F 34.3 °F 39.0 °F 84% 29.94 in - South 25.3 mph - N/A   Unknown
7:00 PM 44.4 °F 35.3 °F 39.9 °F 84% 29.90 in - SSE 25.3 mph - N/A   Unknown
8:00 PM 44.8 °F 35.3 °F 40.3 °F 84% 29.88 in - SSE 27.6 mph - N/A   Unknown
9:00 PM 45.5 °F 36.3 °F 41.0 °F 84% 29.86 in - SSE 27.6 mph - N/A   Unknown
10:00 PM 45 °F - 41 °F 79% 29.82 in - SSE 31.1 mph - -  
10:00 PM 45.3 °F 35.5 °F 40.6 °F 84% 29.82 in - SSE 31.1 mph - N/A   Unknown
11:00 PM 45.5 °F 36.0 °F 41.2 °F 85% 29.83 in - SSE 29.9 mph - N/A   Unknown